User: anonymous   Login
Location: La Silve
(44.2414°N, 5.8889°E)
Time: 23:04:07
(UTC+00:00)
Language:

Cosmos 1500 - Orbit

View from above orbital plane
View from above orbital plane
View from above satellite
View from above satellite

Ground track
Ground track

The orbit data is extracted from the following two-line orbital elements,

1 14372U 83099A   21061.33059775  .00001058  00000-0  48660-4 0  9997
2 14372  82.5121  83.6834 0016306  57.0727 313.6672 15.19134876 43273
Epoch (UTC): 02 March 2021 07:56:03
Eccentricity: 0.0016306
inclination: 82.5121°
perigee height: 497 km
apogee height: 519 km
right ascension of ascending node: 83.6834°
argument of perigee: 57.0727°
revolutions per day: 15.19134876
mean anomaly at epoch: 313.6672°
orbit number at epoch: 4327

The dashed part of the orbit path shows where the satellite is in the earth's shadow,  

DLR